Theta_e
341 341 341 341 341 341 341 341 341 341 341 341 340 340 340 340 339 338 336 336 335 335 334 335 338 339 339 339 338 336 335 335 333 331 330 330 330 329 328 327 326 325
340 340 340 341 341 340 341 341 341 341 341 340 340 340 340 340 340 339 337 337 336 336 335 335 337 338 338 338 337 335 334 334 332 330 330 330 329 328 327 326 325 324
340 340 340 340 341 340 341 341 340 341 340 340 340 340 340 340 340 340 339 338 337 337 336 335 336 337 337 337 337 335 334 334 332 330 330 330 329 328 327 325 324 323
340 340 340 340 340 340 341 341 340 340 340 340 340 340 340 340 340 339 339 338 337 337 336 336 337 336 334 334 335 334 332 333 333 330 329 328 328 327 326 324 324 322
340 340 340 340 340 340 340 340 340 340 340 340 340 340 340 340 340 339 338 337 335 334 333 335 336 335 333 332 333 333 332 331 331 329 329 327 326 326 325 324 323 322
340 340 340 340 340 340 340 340 340 340 340 340 340 340 338 338 339 339 337 335 334 333 332 334 335 334 333 333 332 332 330 329 328 327 327 327 325 324 323 323 322 321
340 340 340 340 340 340 340 340 340 340 340 340 340 339 337 338 338 337 336 335 334 333 332 333 334 334 333 332 332 330 328 328 327 326 326 325 324 323 322 322 321 320
340 340 340 340 340 340 340 340 340 340 340 340 340 339 339 338 337 336 336 335 333 333 333 333 333 334 334 332 332 330 328 328 328 326 326 325 324 323 322 321 320 319
340 340 340 340 340 340 340 340 340 340 340 340 339 339 339 338 337 337 336 334 333 334 334 333 333 334 333 333 331 330 328 328 328 326 326 325 323 322 321 320 319 318
340 340 340 340 339 340 340 340 340 340 340 340 339 338 338 337 336 336 335 334 333 334 334 334 334 333 332 332 331 329 328 327 327 326 325 324 323 322 321 320 319 318
340 340 340 339 340 340 340 340 340 340 340 340 339 339 338 336 336 336 335 334 333 334 334 334 334 333 332 331 330 328 327 326 326 325 323 323 323 322 321 320 319 318
339 340 340 339 340 340 340 340 340 340 340 339 339 338 336 336 336 335 334 334 333 334 334 333 333 333 331 330 329 327 325 326 326 324 322 322 322 321 321 320 319 319
339 340 340 340 340 340 340 340 340 340 339 339 339 337 335 335 335 334 333 333 334 334 334 332 331 330 329 330 329 326 325 325 324 322 322 322 322 321 320 320 320 319
339 340 340 340 340 340 340 340 339 339 338 338 339 336 334 335 335 334 333 333 333 333 333 332 329 327 327 328 327 325 325 324 322 321 322 322 321 321 320 320 319 319
339 339 339 339 340 339 339 339 338 338 337 338 338 336 334 334 333 333 332 332 332 332 332 331 328 326 325 325 325 324 324 322 322 322 322 321 321 321 320 319 319 318
339 339 339 339 339 339 338 339 338 338 337 337 338 336 333 332 332 332 332 332 332 331 330 329 328 326 325 324 324 324 322 321 322 322 322 321 321 320 320 319 319 318
339 340 339 339 339 338 338 338 338 337 336 336 337 335 332 331 332 331 331 332 331 331 330 329 327 327 326 325 325 324 322 321 322 322 321 321 321 320 320 319 318 317
340 340 339 339 339 338 338 337 337 337 336 335 335 334 332 332 332 332 332 332 331 330 330 328 327 326 325 325 325 324 322 321 322 322 321 320 320 320 319 318 316 315
339 338 338 339 339 338 338 337 337 336 335 335 335 333 333 333 332 332 332 331 331 330 329 328 326 325 325 325 324 324 322 321 321 321 321 320 320 319 318 317 315 315
339 338 338 338 338 338 338 337 336 335 335 335 334 332 333 332 332 332 331 331 330 330 329 328 326 324 324 324 323 323 322 321 321 321 320 320 319 318 317 316 315 313
339 338 338 337 336 337 336 335 335 335 334 334 333 333 333 332 331 331 331 330 330 329 329 327 325 324 323 323 323 322 322 321 320 319 319 318 317 316 315 315 313 309
338 338 337 336 336 336 335 334 334 335 334 334 333 332 332 332 332 331 331 330 329 329 328 327 325 324 323 323 323 322 322 321 319 318 318 317 315 315 313 312 310 306
338 337 336 336 335 335 334 334 334 334 334 333 332 332 332 332 331 331 330 330 329 329 328 327 326 324 323 323 323 322 322 320 318 317 316 315 314 313 311 310 308 305
337 336 335 334 334 334 334 335 334 333 333 333 332 332 331 331 330 330 330 329 329 328 328 328 327 325 323 323 322 322 321 319 318 316 314 313 312 311 310 309 308 306
336 335 334 334 333 334 334 334 333 332 332 332 331 331 330 331 330 329 328 328 328 328 327 327 327 326 324 323 322 322 321 319 318 316 314 313 312 310 308 308 307 306
334 334 333 333 333 334 334 333 332 332 332 331 331 330 330 330 329 328 327 327 326 327 326 326 326 326 325 324 323 322 320 319 317 316 314 313 311 310 309 308 307 307
Wind_Speed
32 32 31 30 27 26 25 25 25 25 25 25 25 25 25 25 25 25 26 27 28 28 27 25 23 22 23 23 20 17 20 19 16 16 16 13 13 13 12 12 12 11
32 31 30 28 27 25 24 25 25 25 25 24 24 24 24 25 26 26 27 27 27 28 27 25 24 25 24 23 19 18 21 20 17 17 17 15 15 13 12 12 11 11
31 30 29 28 26 25 25 25 25 25 24 23 23 23 23 24 25 25 27 27 27 27 27 26 25 25 23 21 18 18 22 22 19 19 19 17 16 13 12 12 11 11
30 29 28 27 27 26 25 25 25 24 24 23 22 21 21 22 23 25 27 27 26 26 23 22 24 22 18 18 17 18 21 22 20 21 21 18 16 14 13 12 12 12
31 29 28 27 26 25 25 25 25 25 24 23 21 20 20 21 24 27 27 25 23 19 13 13 19 19 16 16 17 20 23 23 23 24 22 19 16 15 13 13 13 13
30 29 28 27 26 25 25 25 25 25 24 22 21 20 20 22 27 27 25 23 20 16 11 12 16 17 16 17 19 23 25 25 25 23 21 19 16 14 13 13 13 13
30 29 28 26 26 25 25 24 25 25 23 21 20 19 19 23 26 24 23 22 19 17 14 15 16 17 18 19 20 24 27 27 25 21 18 16 15 14 14 13 13 14
29 28 27 26 25 24 23 23 24 23 22 21 20 20 22 25 23 21 21 20 16 16 15 15 16 18 18 19 22 26 27 27 26 23 20 17 16 15 14 14 14 15
27 27 26 25 24 24 22 22 23 22 21 20 18 20 24 24 21 20 20 17 15 15 15 15 16 18 19 20 23 26 28 28 26 25 23 20 19 17 16 16 16 16
26 26 25 25 23 23 21 21 21 20 20 18 17 20 23 21 18 18 17 16 16 16 16 16 17 19 20 22 24 27 29 28 26 24 22 21 19 18 17 17 17 18
25 25 24 24 22 21 21 20 20 20 19 17 18 21 21 18 17 18 16 15 15 17 18 18 18 20 21 23 26 28 29 27 25 22 21 20 18 17 17 17 17 18
24 24 24 23 22 21 20 19 19 19 18 17 20 20 17 16 17 16 14 14 15 17 18 18 18 20 22 24 27 28 28 26 23 20 19 18 17 16 16 16 16 16
24 24 23 22 21 20 19 19 18 18 17 18 20 17 13 14 16 13 12 13 14 15 17 16 17 20 22 24 25 26 26 25 22 18 18 17 16 15 15 15 15 14
23 23 22 22 21 20 19 18 17 17 16 17 18 15 12 13 13 11 11 13 13 13 14 14 15 18 21 24 24 24 23 22 19 19 20 18 16 15 16 16 15 13
22 22 21 21 20 20 19 18 17 16 15 16 16 13 10 10 9 8 9 11 11 11 11 11 13 16 19 23 24 22 19 18 17 18 19 18 17 16 16 15 13 11
21 21 20 20 20 19 19 17 16 14 13 14 14 11 7 6 6 5 6 7 8 8 9 10 13 15 17 21 22 19 17 18 18 19 18 17 17 17 16 15 13 12
20 20 20 20 20 19 18 17 15 14 14 13 12 10 7 6 6 5 4 5 6 8 9 10 12 15 16 17 16 14 15 18 19 18 18 17 17 17 16 16 15 14
20 20 20 19 19 19 18 17 16 15 15 14 11 10 8 6 5 5 5 6 7 7 8 9 11 13 14 14 13 12 14 17 18 17 18 18 16 15 15 15 14 13
20 20 19 19 20 20 18 17 17 17 17 15 13 11 8 6 6 6 6 6 7 7 8 9 9 10 12 13 13 13 14 15 17 16 16 17 16 14 14 13 12 11
22 21 20 21 21 21 19 18 18 19 18 16 15 13 10 8 8 8 7 7 8 8 8 9 10 11 13 14 14 14 13 14 15 16 16 16 15 14 13 11 9 9
22 21 21 20 20 20 20 19 20 20 18 16 15 13 11 10 9 8 8 9 9 7 7 9 11 12 14 14 13 13 14 13 14 16 16 16 15 14 12 10 7 6
23 22 21 20 20 20 21 21 21 20 18 16 15 14 13 12 10 9 9 10 10 8 8 9 12 14 16 15 13 13 14 14 15 16 17 17 16 14 12 9 7 6
24 23 22 20 20 21 22 23 22 20 18 16 16 17 15 12 11 10 10 11 12 11 10 10 12 16 18 17 14 14 15 16 16 17 18 17 17 15 13 10 9 7
25 24 22 21 21 23 24 23 21 20 19 18 18 17 14 11 10 10 11 12 12 11 10 11 13 17 20 18 15 15 16 17 18 18 19 19 18 16 14 12 11 9
25 22 21 22 23 24 23 21 20 20 19 19 17 14 12 12 12 13 14 13 9 7 8 10 12 16 19 19 17 16 17 18 20 21 22 21 20 19 17 15 13 11
23 21 21 23 24 23 21 19 19 20 20 18 14 11 12 14 15 14 12 10 7 6 8 11 12 15 18 19 19 19 19 20 22 23 24 24 23 22 20 18 16 13
Wind_Direction
212 213 215 215 214 214 212 213 215 217 221 224 228 234 239 242 245 244 245 245 245 244 242 239 236 235 237 237 235 233 234 230 220 212 208 207 212 213 211 208 207 207
212 212 213 213 213 214 216 218 221 223 225 229 233 239 242 245 246 247 248 247 246 245 241 236 234 235 238 238 232 222 221 222 217 211 208 208 209 209 208 205 200 199
212 211 211 212 213 215 219 222 226 228 231 234 238 242 245 247 249 251 254 252 249 246 240 235 234 233 234 237 234 221 214 216 216 211 208 206 204 203 201 199 195 192
211 211 212 214 217 220 222 224 226 228 232 235 239 244 247 248 250 252 254 254 251 247 238 234 238 233 222 219 222 220 216 216 214 207 204 201 198 197 195 193 191 185
211 212 214 216 219 221 223 225 228 231 234 235 241 246 245 245 250 250 250 252 253 250 236 230 239 235 218 207 206 212 215 213 208 203 201 196 190 192 192 189 188 183
210 212 214 217 220 221 224 227 231 234 236 238 244 243 237 241 250 250 249 253 258 256 237 229 239 237 227 216 204 202 204 201 197 196 196 191 184 185 187 187 189 186
209 211 214 218 220 222 226 229 233 236 237 242 245 241 240 247 251 252 252 254 259 260 244 228 233 234 228 221 209 200 197 195 191 189 191 191 183 182 183 186 190 187
208 211 214 217 219 221 225 229 234 236 238 243 243 241 250 255 253 253 255 253 255 261 250 227 225 229 225 220 211 201 196 195 193 189 190 193 188 184 183 184 188 186
207 210 213 215 217 220 224 230 235 237 240 243 240 243 251 252 251 254 256 256 256 255 248 234 228 228 223 216 209 202 197 195 193 190 190 190 187 185 184 183 186 186
205 208 211 213 216 219 224 231 236 237 241 241 237 247 254 251 250 254 257 258 255 248 244 239 234 227 220 214 208 202 198 193 191 191 191 189 186 184 183 185 188 189
203 207 210 212 215 220 225 231 235 238 241 240 240 248 253 252 253 257 261 258 251 248 244 237 234 230 221 213 206 198 193 191 190 191 190 187 184 183 184 187 191 193
202 206 209 212 216 220 225 230 234 238 240 241 246 246 244 250 255 256 259 258 254 254 246 233 232 231 221 212 205 195 189 188 188 189 189 187 182 182 186 189 193 195
201 207 210 213 217 221 226 229 232 236 237 242 249 245 235 246 253 251 253 254 253 253 246 235 228 218 211 209 204 194 187 184 183 184 188 187 182 182 187 192 194 194
203 207 210 212 216 219 223 225 229 233 235 243 251 246 234 245 254 254 254 248 243 244 245 241 224 204 199 200 196 188 185 183 179 181 185 182 179 184 188 190 191 191
204 207 208 210 213 216 218 220 225 229 230 240 251 248 237 246 256 257 250 241 236 238 244 241 222 203 194 193 190 186 185 185 180 180 186 183 178 182 186 187 190 195
203 206 207 209 212 213 215 216 217 221 221 230 245 246 230 223 228 229 237 242 242 242 244 237 222 210 198 191 193 193 188 184 180 181 187 187 181 181 186 190 196 202
203 206 207 209 212 212 213 212 210 213 210 214 231 233 203 189 197 204 224 245 245 243 245 238 224 216 205 196 199 203 192 183 181 183 186 188 188 188 188 191 194 198
204 207 207 210 211 211 210 207 206 204 197 196 209 209 191 185 196 204 217 231 235 238 242 239 227 216 209 206 206 203 195 189 187 187 188 188 189 189 189 190 191 197
207 208 209 211 211 209 207 204 201 196 189 189 194 191 185 187 194 203 215 223 226 232 236 235 225 208 202 203 203 199 198 196 192 189 190 189 187 188 189 191 195 207
206 206 207 208 205 203 204 202 196 191 186 185 182 177 177 184 192 202 212 217 220 226 233 233 221 204 197 198 198 198 201 202 197 192 190 188 186 188 191 193 202 222
203 205 206 204 197 196 199 196 190 186 182 179 177 177 180 183 189 203 210 212 212 212 222 226 217 205 199 197 199 199 199 200 199 193 189 185 183 185 189 193 203 219
201 202 203 201 196 194 193 189 185 183 179 179 179 180 181 180 184 199 206 203 199 196 206 215 213 207 201 198 200 204 201 198 197 194 188 183 181 182 184 186 189 190
199 198 197 198 198 194 188 185 185 182 180 181 179 174 173 175 180 194 202 198 192 193 201 207 209 207 204 203 206 207 201 195 193 193 188 183 180 180 180 179 177 175
196 196 198 199 197 191 184 183 185 184 181 181 176 169 166 170 180 191 198 195 189 188 197 207 211 209 207 209 212 209 202 195 192 191 187 184 181 180 180 179 174 171
195 197 201 198 190 185 182 183 185 183 178 173 167 162 165 177 188 190 185 179 175 181 198 208 214 211 210 212 213 210 203 197 194 192 188 186 185 182 181 181 177 174
192 195 194 188 181 179 179 180 180 176 170 164 159 162 173 182 184 179 167 159 167 194 204 208 215 213 209 210 212 210 207 201 197 195 192 189 188 185 182 181 181 180